Location: Anuling
(14.1239°N, 120.8922°E)
Time: 05:31:42
(UTC+00:00)

Cosmos 2341 Rocket - Pass Details

Date: 14 January 2026
Orbit: 967 x 1004 km, 82.9° (Epoch: 10 February)

Event Time Altitude Azimuth Distance (km) Brightness Sun altitude
Rises 10:16:14 0° 353° (N) 3,683 6.9 -7.5°
Reaches altitude 10° 10:18:46 10° 351° (N) 2,729 6.2 -8.1°
Maximum altitude 10:24:59 75° 268° (W) 1,009 4.3 -9.5°
Drops below altitude 10° 10:31:10 10° 183° (S) 2,705 6.6 -10.9°
Sets 10:33:40 0° 181° (S) 3,649 7.3 -11.5°
